Content
SEND FEEDBACK

Daily
Averages
Monthly
Summary
United States of America

CHICAGO, ILLINOIS


Home > North America > United States > Illinois
Elevation: 674 feet     Latitude: 41 59N     Longitude: 087 54W

WEATHER
 
SELECT A DAY
Number of Records: 197,791;   Date Range: 7/8/95 - 10/19/14
 
SHARE

PRINT THIS DATA

[ ← Previous Day ]
WEATHER ALMANAC - APRIL 21, 2013
[ Next Day → ]
[ °C ]   °F
Weather ElementAverageHighLow
Temperature43.4 °F52 °F (5:52 pm)33.1 °F (3:52 am)
Dewpoint26.4 °F33.1 °F (11:52 pm)19.9 °F (10:52 am)
Humidity52.7 %78 % (3:52 am)38 % (11:52 am)
Barometer30.45 in30.56 in (8:52 am)30.35 in (11:52 pm)
Wind Speed9.2 mph13.8 mph (9:52 am)
Wind Gust19.6 mph (2:52 pm)
Weather ElementAverage
Visibility10 mi
Wind DirectionESE (128.3 °)

Weather ElementTotal
Precipitation---
Heating Degree Days22.5 (Base 65)
Averaged from 23 records on April 21, 2013
WEATHER CONDITIONS BREAKOUT
WIND DIRECTION BREAKOUT
WEATHER BY HOUR - APRIL 21, 2013
[ °C ]   °F
Local TimeTemperatureDewpointHumidityBarometerVisibilityWind DirectionWind SpeedGust SpeedPrecipitationEventsConditions
1:52 AM34.0 °F26.1 °F73 %30.47 in10.0 miESE (110°)3.5 mph
2:52 AM34.0 °F25.0 °F70 %30.48 in10.0 miCalm
3:52 AM33.1 °F27.0 °F78 %30.50 in10.0 miCalm
4:52 AM33.1 °F24.1 °F70 %30.50 in10.0 miESE (110°)3.5 mph
5:52 AM34.0 °F24.1 °F67 %30.52 in10.0 miESE (120°)5.8 mph
6:52 AM35.1 °F25.0 °F67 %30.54 in10.0 miSouth (170°)4.6 mphClear
7:52 AM37.0 °F25.0 °F62 %30.55 in10.0 miSSE (150°)8.1 mphClear
8:52 AM37.9 °F23.0 °F55 %30.56 in10.0 miSSE (150°)8.1 mphMostly Cloudy
9:52 AM41.0 °F21.9 °F47 %30.55 in10.0 miSSE (150°)13.8 mph18.4 mphMostly Cloudy
10:52 AM42.1 °F19.9 °F41 %30.54 in10.0 miSSE (150°)10.4 mphScattered Clouds
11:52 AM44.1 °F19.9 °F38 %30.53 in10.0 miSSE (150°)12.7 mphMostly Cloudy
12:52 PM46.0 °F25.0 °F44 %30.48 in10.0 miEast (100°)10.4 mphPartly Cloudy
1:52 PM46.0 °F25.0 °F44 %30.46 in10.0 miESE (120°)13.8 mphPartly Cloudy
2:52 PM48.0 °F25.0 °F41 %30.43 in10.0 miSE (130°)11.5 mph19.6 mphClear
3:52 PM50.0 °F27.0 °F41 %30.40 in10.0 miSE (130°)10.4 mph
4:52 PM51.1 °F27.0 °F39 %30.38 in10.0 miESE (120°)11.5 mph
5:52 PM52.0 °F28.9 °F41 %30.37 in10.0 miESE (120°)9.2 mph
6:52 PM52.0 °F28.9 °F41 %30.36 in10.0 miSouth (170°)13.8 mphClear
7:52 PM51.1 °F30.9 °F46 %30.36 in10.0 miSSE (160°)9.2 mph
8:52 PM50.0 °F30.9 °F48 %30.37 in10.0 miSSE (160°)12.7 mphClear
9:52 PM48.9 °F32.0 °F52 %30.38 in10.0 miSSE (160°)13.8 mphClear
10:52 PM48.9 °F32.0 °F52 %30.36 in10.0 miSSE (160°)12.7 mph
11:52 PM48.0 °F33.1 °F56 %30.35 in10.0 miSSE (160°)11.5 mph
Hourly data recorded from KPWK, located miles away from Chicago, Illinois







STORIES FROM OUR PARTNERS